Regional Weather Roundup
Issued by NWS Spokane, WA

Home | Current Version | Previous Version | Text Only | Print | Product List | Glossary On
Versions: 1 2 3 4 5 6 7 8 9 10 11 12 13 14 15 16 17 18 19 20 21 22 23 24 25 26 27 28 29 30 31 32 33 34 35 36 37 38 39 40 41 42 43 44 45 46 47 48 49 50
000
NZUS01 KOTX 032357
RWROTX
EASTERN WASHINGTON/NORTHERN IDAHO ROUNDUP
NATIONAL WEATHER SERVICE, SPOKANE WA
500 PM PDT THU SEP 03 2015

Note: "fair" indicated few or no clouds below 12,000 feet with no
significant weather and/or obstructions to visibility.

...NORTHEAST WASHINGTON AND NORTHERN IDAHO PANHANDLE...

CITY           SKY/WX    TMP DP  RH WIND       PRES   REMARKS
SPOKANE INTL   MOSUNNY   65  27  23 S15G21    29.91F
SPOKANE DOWNTO MOSUNNY   66  31  27 SW10      29.92S
DEER PARK      PTSUNNY   64  26  23 S12       29.91S

...SOUTHEAST WASHINGTON AND SOUTHERN IDAHO PANHANDLE...

CITY           SKY/WX    TMP DP  RH WIND       PRES   REMARKS
WALLA WALLA    SUNNY     69  31  24 S5        29.91F
PULLMAN/MOSCOW PTSUNNY   61  34  36 S7        29.96S
LOWELL           N/A     56  52  86 CALM      29.98F

...COLUMBIA BASIN...

CITY           SKY/WX    TMP DP  RH WIND       PRES   REMARKS
EPHRATA        SUNNY     71  32  23 SW12G17   29.88S
MOSES LAKE     SUNNY     71  31  22 SW9       29.89F
TRI CITIES     SUNNY     72  33  24 VRB3      29.90F
HERMISTON      SUNNY     72  27  18 W8        29.89F
PENDLETON      MOSUNNY   69  25  19 NW13G23   29.91S

...EAST SLOPES CASCADES...

CITY           SKY/WX    TMP DP  RH WIND       PRES   REMARKS
THE DALLES     SUNNY     73  34  23 NW16      29.91S
YAKIMA         MOSUNNY   71  29  21 E3        29.89F
ELLENSBURG     PTSUNNY   68  33  27 NW23G30   29.90S
OMAK           PTSUNNY   71  23  16 SW10G18   29.86S

...SOUTHERN BRITISH COLUMBIA...

CITY           SKY/WX    TMP DP  RH WIND       PRES   REMARKS

...WESTERN MONTANA...

CITY           SKY/WX    TMP DP  RH WIND       PRES   REMARKS
MISSOULA       CLOUDY    53  46  77 E6        29.98S

...NEIGHBORING CITIES...

CITY           SKY/WX    TMP DP  RH WIND       PRES   REMARKS
SEATTLE        PTSUNNY   63  44  50 SW10      29.99S



USA.gov is the U.S. government's official web portal to all federal, state and local government web resources and services.